Regional Weather Roundup
Issued by NWS Northern Indiana

Home | Current Version | Previous Version | Text Only | Print | Product List | Glossary Off
Versions: 1 2 3 4 5 6 7 8 9 10 11 12 13 14 15 16 17 18 19 20 21 22 23 24 25 26 27 28 29 30 31 32 33 34 35 36 37 38 39 40 41 42 43 44 45 46 47 48 49 50

000
ASUS43 KIWX 191600
RWRIWX

KIWX WEATHER ROUNDUP
NATIONAL WEATHER SERVICE NORTHERN INDIANA
1200 PM EDT FRI SEP 19 2014

NOTE: "FAIR" INDICATES FEW OR NO CLOUDS BELOW 12,000 FEET WITH NO
SIGNIFICANT WEATHER AND/OR OBSTRUCTIONS TO VISIBILITY.

* THESE STATIONS ARE NOT UNDER NWS QUALITY CONTROL. THEY ALSO MAY NOT
  REPORT WEATHER SUCH AS PRECIPITATION OR FOG.

INZ001>027-191700-
NORTHERN INDIANA

CITY           SKY/WX    TMP DP  RH WIND       PRES   REMARKS
GARY*          MOSUNNY   68  52  56 SE7       30.17F
VALPARAISO     SUNNY     66  52  60 S10       30.18F
KNOX*          SUNNY     66  52  60 SE8       30.18F
SOUTH BEND     SUNNY     66  52  60 SE12      30.20F
ELKHART*       SUNNY     64  54  68 SE9       30.20F
GOSHEN         SUNNY     66  54  65 SE12      30.20F
MONTICELLO*    SUNNY     66  54  63 SE3       30.18F
ANGOLA*        SUNNY     63  54  72 SE9       30.22F
FORT WAYNE     MOSUNNY   63  53  70 SE9       30.23F
PERU/GRISSOM   SUNNY     66  56  71 VRB7      30.20F

$$
INZ028>050-191700-
CENTRAL INDIANA

CITY           SKY/WX    TMP DP  RH WIND       PRES   REMARKS
LAFAYETTE      SUNNY     67  53  61 SE7       30.18S
KOKOMO*        SUNNY     66  52  59 SE12      30.20F
MUNCIE*        SUNNY     67  50  54 E10       30.21S
INDIANAPOLIS   MOSUNNY   68  49  50 E13       30.18S

$$
MIZ043>046-050>051-056>058-064>065-071>073-077>080-191700-
SOUTHWEST LOWER MICHIGAN

CITY           SKY/WX    TMP DP  RH WIND       PRES   REMARKS
BATTLE CREEK   SUNNY     63  52  67 SE7       30.22F
BENTON HARBOR  SUNNY     63  53  70 S9        30.17F
COLDWATER*     SUNNY     64  54  69 S9        30.21F
HILLSDALE*     SUNNY     63  52  66 S3        30.22F
HOLLAND        MOSUNNY   65  54  67 SE13      30.18F
GRAND RAPIDS   MOSUNNY   64  55  72 SE10      30.21F
KALAMAZOO      SUNNY     64  53  67 S9        30.21F
STURGIS*       SUNNY     63  54  72 S10       30.21F
THREE RIVERS*  FAIR      65  54  68 S8        30.21F

$$
OHZ001>008-015>018-024>025-191700-
NORTHWEST OHIO

CITY           SKY/WX    TMP DP  RH WIND       PRES   REMARKS
DEFIANCE       SUNNY     63  51  65 S7        30.24F
FINDLAY        SUNNY     66  49  54 NE9       30.23F
TOLEDO EXPRESS SUNNY     64  50  60 NE3       30.23F
TOLEDO METCALF MOSUNNY   64  50  60 VRB7      30.25F
LIMA           SUNNY     66  50  56 E10       30.23F

$$
&&



USA.gov is the U.S. government's official web portal to all federal, state and local government web resources and services.